| time (UTC) | temp F | wind direction | speed MPH | gust MPH | rain 1hr in | rain 24hr in | rain mn in | humidity % | barometer mb |
| 20260906192813 | 77 | 0 | 0.0 | 1.0 | 0.00 | 0.23 | 0.23 | 89 | 1008.8 |
| 20260906192313 | 77 | 0 | 0.0 | 1.0 | 0.00 | 0.23 | 0.23 | 91 | 1008.9 |
| 20260906191813 | 76 | 0 | 0.0 | 0.0 | 0.00 | 0.23 | 0.23 | 91 | 1008.9 |
| 20260906191313 | 76 | 0 | 0.0 | 0.0 | 0.00 | 0.23 | 0.23 | 91 | 1008.9 |
| 20260906190813 | 76 | 0 | 0.0 | 0.0 | 0.00 | 0.23 | 0.23 | 92 | 1009.0 |
| 20260906190009 | 76 | 0 | 0.0 | 0.0 | 0.00 | 0.23 | 0.23 | 92 | 1009.0 |
| 20260906185506 | 76 | 0 | 0.0 | 1.0 | 0.00 | 0.23 | 0.23 | 91 | 1009.3 |
| 20260906185007 | 76 | 0 | 0.0 | 1.0 | 0.00 | 0.23 | 0.23 | 93 | 1009.3 |
| 20260906184507 | 76 | 0 | 0.0 | 1.0 | 0.00 | 0.23 | 0.23 | 93 | 1009.3 |
| 20260906184006 | 76 | 0 | 0.0 | 1.0 | 0.00 | 0.23 | 0.23 | 92 | 1009.3 |
| 20260906183516 | 76 | 0 | 0.0 | 0.0 | 0.00 | 0.29 | 0.23 | 91 | 1009.3 |
| 20260906183007 | 76 | 0 | 0.0 | 0.0 | 0.00 | 0.52 | 0.23 | 92 | 1009.3 |
| 20260906182507 | 76 | 0 | 0.0 | 0.0 | 0.00 | 0.60 | 0.23 | 92 | 1009.3 |
| 20260906182007 | 76 | 0 | 0.0 | 1.0 | 0.00 | 0.60 | 0.23 | 92 | 1009.3 |
| 20260906181511 | 76 | 0 | 0.0 | 1.0 | 0.00 | 0.60 | 0.23 | 93 | 1009.3 |
| 20260906181006 | 75 | 0 | 0.0 | 1.0 | 0.00 | 0.60 | 0.23 | 95 | 1009.4 |
| 20260906180510 | 75 | 0 | 0.0 | 1.0 | 0.00 | 0.60 | 0.23 | 95 | 1009.4 |
| 20260906180010 | 75 | 0 | 0.0 | 0.0 | 0.00 | 0.60 | 0.23 | 96 | 1009.4 |
| 20260906175506 | 74 | 0 | 0.0 | 0.0 | 0.00 | 0.60 | 0.23 | 95 | 1009.4 |
| 20260906174513 | 74 | 0 | 0.0 | 0.0 | 0.00 | 0.60 | 0.23 | 95 | 1009.4 |
| 20260906174006 | 73 | 0 | 0.0 | 0.0 | 0.00 | 0.60 | 0.23 | 95 | 1009.6 |
| 20260906173006 | 73 | 0 | 0.0 | 0.0 | 0.01 | 0.60 | 0.23 | 96 | 1009.6 |
| 20260906172506 | 72 | 0 | 0.0 | 0.0 | 0.01 | 0.60 | 0.23 | 96 | 1009.8 |
| 20260906172007 | 72 | 0 | 0.0 | 0.0 | 0.01 | 0.60 | 0.23 | 96 | 1009.8 |
| 20260906171509 | 72 | 0 | 0.0 | 0.0 | 0.01 | 0.60 | 0.23 | 96 | 1009.8 |
| 20260906171006 | 72 | 0 | 0.0 | 0.0 | 0.02 | 0.60 | 0.23 | 96 | 1009.8 |
| 20260906170510 | 72 | 0 | 0.0 | 0.0 | 0.03 | 0.60 | 0.23 | 97 | 1009.8 |
| 20260906170006 | 72 | 0 | 0.0 | 0.0 | 0.05 | 0.60 | 0.23 | 97 | 1009.8 |
| 20260906165509 | 71 | 0 | 0.0 | 0.0 | 0.06 | 0.60 | 0.23 | 97 | 1009.8 |
| 20260906165006 | 71 | 0 | 0.0 | 0.0 | 0.06 | 0.60 | 0.23 | 97 | 1009.8 |
| 20260906164506 | 71 | 0 | 0.0 | 0.0 | 0.06 | 0.60 | 0.23 | 97 | 1009.8 |
| 20260906164006 | 71 | 0 | 0.0 | 0.0 | 0.06 | 0.60 | 0.23 | 96 | 1010.1 |
| 20260906163508 | 71 | 0 | 0.0 | 0.0 | 0.05 | 0.59 | 0.22 | 96 | 1010.1 |
| 20260906163006 | 71 | 0 | 0.0 | 0.0 | 0.06 | 0.59 | 0.22 | 96 | 1010.1 |
| 20260906162506 | 71 | 0 | 0.0 | 0.0 | 0.06 | 0.59 | 0.22 | 96 | 1009.8 |
| 20260906162006 | 71 | 0 | 0.0 | 0.0 | 0.09 | 0.59 | 0.22 | 96 | 1009.8 |
| 20260906161506 | 71 | 0 | 0.0 | 0.0 | 0.15 | 0.59 | 0.22 | 96 | 1009.8 |
| 20260906161007 | 71 | 0 | 0.0 | 0.0 | 0.21 | 0.58 | 0.21 | 96 | 1010.0 |
| 20260906160508 | 71 | 0 | 0.0 | 0.0 | 0.20 | 0.57 | 0.20 | 96 | 1010.0 |
| 20260906160006 | 71 | 0 | 0.0 | 0.0 | 0.18 | 0.55 | 0.18 | 96 | 1010.0 |
| 20260906155507 | 71 | 0 | 0.0 | 0.0 | 0.17 | 0.54 | 0.17 | 95 | 1009.8 |
| 20260906155006 | 71 | 0 | 0.0 | 0.0 | 0.17 | 0.54 | 0.17 | 95 | 1009.8 |
| 20260906154506 | 71 | 0 | 0.0 | 0.0 | 0.17 | 0.54 | 0.17 | 95 | 1009.8 |
| 20260906154007 | 71 | 0 | 0.0 | 0.0 | 0.17 | 0.54 | 0.17 | 94 | 1010.3 |
| 20260906153508 | 72 | 0 | 0.0 | 0.0 | 0.17 | 0.54 | 0.17 | 93 | 1010.3 |
| 20260906153006 | 72 | 0 | 0.0 | 0.0 | 0.16 | 0.53 | 0.16 | 93 | 1010.3 |
| 20260906152506 | 72 | 0 | 0.0 | 0.0 | 0.16 | 0.53 | 0.16 | 93 | 1010.7 |
| 20260906152007 | 73 | 0 | 0.0 | 0.0 | 0.13 | 0.50 | 0.13 | 93 | 1010.7 |
| 20260906151506 | 74 | 0 | 0.0 | 1.0 | 0.07 | 0.44 | 0.07 | 93 | 1010.7 |
| 20260906151007 | 74 | 0 | 0.0 | 1.0 | 0.00 | 0.37 | 0.00 | 91 | 1010.2 |
| 20260906150508 | 75 | 0 | 0.0 | 0.0 | 0.00 | 0.37 | 0.00 | 91 | 1010.2 |
| 20260906150006 | 75 | 0 | 0.0 | 0.0 | 0.00 | 0.37 | 0.00 | 91 | 1010.2 |
| 20260906145506 | 75 | 0 | 0.0 | 0.0 | 0.00 | 0.37 | 0.00 | 91 | 1009.7 |
| 20260906145006 | 75 | 0 | 0.0 | 0.0 | 0.00 | 0.37 | 0.00 | 89 | 1009.7 |
| 20260906144506 | 76 | 0 | 0.0 | 0.0 | 0.00 | 0.37 | 0.00 | 90 | 1009.7 |
| 20260906144006 | 75 | 0 | 0.0 | 0.0 | 0.00 | 0.37 | 0.00 | 90 | 1009.7 |
| 20260906143508 | 75 | 0 | 0.0 | 0.0 | 0.00 | 0.37 | 0.00 | 91 | 1009.7 |
| 20260906143006 | 75 | 0 | 0.0 | 0.0 | 0.00 | 0.37 | 0.00 | 91 | 1009.7 |
| 20260906142508 | 75 | 0 | 0.0 | 0.0 | 0.00 | 0.37 | 0.00 | 92 | 1009.2 |
| 20260906142006 | 75 | 0 | 0.0 | 0.0 | 0.00 | 0.37 | 0.00 | 93 | 1009.2 |
| 20260906141506 | 75 | 0 | 0.0 | 0.0 | 0.00 | 0.37 | 0.00 | 93 | 1009.2 |
| 20260906141007 | 74 | 0 | 0.0 | 1.0 | 0.00 | 0.37 | 0.00 | 94 | 1009.1 |
| 20260906140006 | 74 | 0 | 0.0 | 0.0 | 0.00 | 0.37 | 0.00 | 93 | 1009.1 |
| 20260906135506 | 74 | 0 | 0.0 | 0.0 | 0.00 | 0.37 | 0.00 | 94 | 1009.2 |
| 20260906135006 | 74 | 0 | 0.0 | 0.0 | 0.00 | 0.37 | 0.00 | 94 | 1009.2 |
| 20260906134506 | 74 | 0 | 0.0 | 0.0 | 0.00 | 0.37 | 0.00 | 94 | 1009.2 |
| 20260906134006 | 74 | 0 | 0.0 | 0.0 | 0.00 | 0.37 | 0.00 | 95 | 1009.2 |
| 20260906133507 | 73 | 0 | 0.0 | 0.0 | 0.00 | 0.37 | 0.00 | 95 | 1009.2 |
| 20260906133008 | 73 | 0 | 0.0 | 0.0 | 0.00 | 0.37 | 0.00 | 96 | 1009.2 |
| 20260906132506 | 73 | 0 | 0.0 | 2.0 | 0.00 | 0.37 | 0.00 | 96 | 1009.0 |
| 20260906132006 | 73 | 0 | 0.0 | 2.0 | 0.00 | 0.37 | 0.00 | 97 | 1009.0 |
| 20260906131506 | 73 | 0 | 0.0 | 1.0 | 0.00 | 0.37 | 0.00 | 98 | 1009.0 |
| 20260906131019 | 73 | 0 | 0.0 | 0.0 | 0.00 | 0.37 | 0.00 | 97 | 1009.2 |
| 20260906130509 | 73 | 0 | 0.0 | 0.0 | 0.00 | 0.37 | 0.00 | 98 | 1009.2 |
| 20260906130006 | 72 | 0 | 0.0 | 0.0 | 0.00 | 0.37 | 0.00 | 97 | 1009.2 |
| 20260906125508 | 72 | 0 | 0.0 | 0.0 | 0.00 | 0.37 | 0.00 | 98 | 1009.0 |
| 20260906125005 | 72 | 0 | 0.0 | 0.0 | 0.00 | 0.37 | 0.00 | 97 | 1009.0 |
| 20260906124510 | 72 | 0 | 0.0 | 0.0 | 0.00 | 0.37 | 0.00 | 97 | 1009.0 |
| 20260906124010 | 71 | 0 | 0.0 | 0.0 | 0.00 | 0.37 | 0.00 | 97 | 1009.0 |
| 20260906123508 | 71 | 0 | 0.0 | 0.0 | 0.00 | 0.37 | 0.00 | 97 | 1009.0 |
| 20260906123006 | 71 | 0 | 0.0 | 0.0 | 0.00 | 0.37 | 0.00 | 97 | 1009.0 |
| 20260906122506 | 71 | 0 | 0.0 | 0.0 | 0.00 | 0.37 | 0.00 | 97 | 1008.6 |
| 20260906122010 | 71 | 0 | 0.0 | 1.0 | 0.00 | 0.37 | 0.00 | 97 | 1008.6 |
| 20260906121506 | 71 | 0 | 0.0 | 1.0 | 0.00 | 0.37 | 0.00 | 97 | 1008.6 |
| 20260906121007 | 71 | 0 | 0.0 | 0.0 | 0.00 | 0.37 | 0.00 | 97 | 1008.6 |
| 20260906120508 | 71 | 0 | 0.0 | 0.0 | 0.00 | 0.37 | 0.00 | 97 | 1008.6 |
| 20260906120006 | 71 | 0 | 0.0 | 0.0 | 0.00 | 0.37 | 0.00 | 97 | 1008.6 |
| 20260906115505 | 71 | 0 | 0.0 | 0.0 | 0.00 | 0.37 | 0.00 | 97 | 1008.5 |
| 20260906115006 | 71 | 0 | 0.0 | 0.0 | 0.00 | 0.37 | 0.00 | 97 | 1008.5 |
| 20260906114513 | 71 | 0 | 0.0 | 0.0 | 0.00 | 0.37 | 0.00 | 96 | 1008.5 |
| 20260906114023 | 71 | 0 | 0.0 | 0.0 | 0.00 | 0.37 | 0.00 | 96 | 1008.3 |
| 20260906113508 | 71 | 0 | 0.0 | 0.0 | 0.00 | 0.37 | 0.00 | 96 | 1008.3 |
| 20260906113006 | 71 | 0 | 0.0 | 0.0 | 0.00 | 0.37 | 0.00 | 96 | 1008.3 |
| 20260906112508 | 71 | 0 | 0.0 | 0.0 | 0.00 | 0.37 | 0.00 | 96 | 1008.1 |
| 20260906112006 | 71 | 0 | 0.0 | 0.0 | 0.00 | 0.37 | 0.00 | 96 | 1008.1 |
| 20260906111506 | 71 | 0 | 0.0 | 0.0 | 0.00 | 0.37 | 0.00 | 96 | 1008.1 |
| 20260906111008 | 70 | 0 | 0.0 | 0.0 | 0.00 | 0.37 | 0.00 | 96 | 1008.1 |
| 20260906110508 | 70 | 0 | 0.0 | 0.0 | 0.00 | 0.37 | 0.00 | 96 | 1008.1 |
| 20260906110006 | 70 | 0 | 0.0 | 0.0 | 0.00 | 0.37 | 0.00 | 96 | 1008.1 |
| 20260906105505 | 70 | 0 | 0.0 | 1.0 | 0.00 | 0.37 | 0.00 | 96 | 1007.7 |
| 20260906105006 | 70 | 0 | 0.0 | 1.0 | 0.00 | 0.37 | 0.00 | 95 | 1007.7 |
| 20260906104505 | 70 | 0 | 0.0 | 0.0 | 0.00 | 0.37 | 0.00 | 95 | 1007.7 |
| 20260906104005 | 70 | 0 | 0.0 | 0.0 | 0.00 | 0.37 | 0.00 | 95 | 1007.6 |
| 20260906103508 | 70 | 0 | 0.0 | 0.0 | 0.00 | 0.37 | 0.00 | 95 | 1007.6 |
| 20260906103005 | 70 | 0 | 0.0 | 0.0 | 0.00 | 0.37 | 0.00 | 94 | 1007.6 |
| 20260906102434 | 71 | 0 | 0.0 | 1.0 | 0.00 | 0.37 | 0.00 | 94 | 1007.5 |
| 20260906101924 | 71 | 0 | 0.0 | 1.0 | 0.00 | 0.37 | 0.00 | 94 | 1007.5 |
| 20260906101422 | 71 | 0 | 0.0 | 1.0 | 0.00 | 0.37 | 0.00 | 94 | 1007.5 |
| 20260906100926 | 71 | 0 | 0.0 | 0.0 | 0.00 | 0.37 | 0.00 | 94 | 1007.2 |
| 20260906100424 | 71 | 0 | 0.0 | 0.0 | 0.00 | 0.37 | 0.00 | 93 | 1007.2 |
| 20260906095933 | 71 | 0 | 0.0 | 0.0 | 0.00 | 0.37 | 0.00 | 93 | 1007.2 |
| 20260906095435 | 71 | 0 | 0.0 | 0.0 | 0.00 | 0.37 | 0.00 | 93 | 1007.0 |
| 20260906094923 | 71 | 0 | 0.0 | 0.0 | 0.00 | 0.37 | 0.00 | 92 | 1007.0 |
| 20260906094423 | 71 | 0 | 0.0 | 0.0 | 0.00 | 0.37 | 0.00 | 92 | 1007.0 |
| 20260906093923 | 72 | 0 | 0.0 | 0.0 | 0.00 | 0.37 | 0.00 | 92 | 1007.0 |
| 20260906093424 | 72 | 0 | 0.0 | 0.0 | 0.00 | 0.37 | 0.00 | 91 | 1007.0 |
| 20260906092926 | 72 | 0 | 0.0 | 0.0 | 0.00 | 0.37 | 0.00 | 91 | 1007.0 |
| 20260906092423 | 72 | 0 | 0.0 | 0.0 | 0.00 | 0.37 | 0.00 | 91 | 1007.1 |
| 20260906091922 | 72 | 0 | 0.0 | 0.0 | 0.00 | 0.37 | 0.00 | 90 | 1007.1 |
| 20260906091423 | 72 | 0 | 0.0 | 0.0 | 0.00 | 0.37 | 0.00 | 90 | 1007.1 |
| 20260906090923 | 73 | 0 | 0.0 | 0.0 | 0.00 | 0.37 | 0.00 | 90 | 1007.0 |
| 20260906090423 | 73 | 0 | 0.0 | 0.0 | 0.00 | 0.37 | 0.00 | 90 | 1007.0 |
| 20260906085923 | 73 | 0 | 0.0 | 0.0 | 0.00 | 0.37 | 0.00 | 90 | 1007.0 |
| 20260906085439 | 73 | 0 | 0.0 | 0.0 | 0.00 | 0.37 | 0.00 | 89 | 1007.0 |
| 20260906084923 | 73 | 0 | 0.0 | 0.0 | 0.00 | 0.37 | 0.00 | 89 | 1007.0 |
| 20260906084423 | 73 | 0 | 0.0 | 0.0 | 0.00 | 0.37 | 0.00 | 89 | 1007.0 |
| 20260906083923 | 73 | 0 | 0.0 | 0.0 | 0.00 | 0.37 | 0.00 | 88 | 1007.0 |
| 20260906083427 | 73 | 0 | 0.0 | 0.0 | 0.00 | 0.37 | 0.00 | 88 | 1007.0 |
| 20260906082924 | 73 | 0 | 0.0 | 0.0 | 0.00 | 0.37 | 0.00 | 88 | 1007.0 |
| 20260906082422 | 74 | 0 | 0.0 | 0.0 | 0.00 | 0.37 | 0.00 | 88 | 1006.8 |
| 20260906081923 | 74 | 0 | 0.0 | 0.0 | 0.00 | 0.37 | 0.00 | 87 | 1006.8 |
| 20260906081423 | 74 | 0 | 0.0 | 0.0 | 0.00 | 0.37 | 0.00 | 87 | 1006.8 |
| 20260906080956 | 74 | 0 | 0.0 | 0.0 | 0.00 | 0.37 | 0.00 | 87 | 1006.6 |
| 20260906080923 | 74 | 0 | 0.0 | 0.0 | 0.00 | 0.37 | 0.00 | 87 | 1006.6 |
| 20260906080423 | 74 | 0 | 0.0 | 0.0 | 0.00 | 0.37 | 0.00 | 87 | 1006.6 |
| 20260906075922 | 74 | 0 | 0.0 | 0.0 | 0.00 | 0.37 | 0.00 | 86 | 1006.6 |
| 20260906075423 | 74 | 0 | 0.0 | 0.0 | 0.00 | 0.37 | 0.00 | 86 | 1006.4 |
| 20260906074923 | 74 | 0 | 0.0 | 0.0 | 0.00 | 0.37 | 0.00 | 87 | 1006.4 |
| 20260906074112 | 74 | 0 | 0.0 | 0.0 | 0.00 | 0.37 | 0.00 | 87 | 1006.4 |
| 20260906073612 | 74 | 0 | 0.0 | 0.0 | 0.00 | 0.37 | 0.00 | 88 | 1006.4 |
| 20260906073112 | 74 | 0 | 0.0 | 0.0 | 0.00 | 0.37 | 0.00 | 88 | 1006.4 |
| 20260906072219 | 74 | 0 | 0.0 | 0.0 | 0.00 | 0.37 | 0.00 | 87 | 1006.5 |
| 20260906071720 | 74 | 0 | 0.0 | 1.0 | 0.00 | 0.37 | 0.00 | 87 | 1006.5 |
| 20260906071214 | 74 | 0 | 0.0 | 1.0 | 0.00 | 0.37 | 0.00 | 87 | 1006.5 |
| 20260906070713 | 74 | 0 | 0.0 | 0.0 | 0.00 | 0.37 | 0.00 | 87 | 1006.9 |
| 20260906070220 | 74 | 0 | 0.0 | 0.0 | 0.00 | 0.37 | 0.00 | 87 | 1006.9 |
| 20260906065712 | 74 | 0 | 0.0 | 0.0 | 0.00 | 0.37 | 0.00 | 87 | 1006.9 |
| 20260906065218 | 74 | 0 | 0.0 | 2.0 | 0.00 | 0.37 | 0.00 | 88 | 1006.8 |
| 20260906064718 | 74 | 0 | 0.0 | 2.0 | 0.00 | 0.37 | 0.00 | 88 | 1006.8 |
| 20260906064212 | 74 | 0 | 0.0 | 0.0 | 0.00 | 0.37 | 0.00 | 87 | 1006.8 |
| 20260906063712 | 75 | 0 | 0.0 | 0.0 | 0.00 | 0.37 | 0.00 | 86 | 1007.0 |
| 20260906063213 | 75 | 0 | 0.0 | 0.0 | 0.00 | 0.37 | 0.00 | 86 | 1007.0 |
| 20260906062719 | 75 | 0 | 0.0 | 0.0 | 0.00 | 0.37 | 0.00 | 85 | 1007.0 |
| 20260906062211 | 75 | 0 | 0.0 | 0.0 | 0.00 | 0.37 | 0.00 | 86 | 1007.3 |
| 20260906061714 | 75 | 0 | 0.0 | 0.0 | 0.00 | 0.37 | 0.00 | 86 | 1007.3 |
| 20260906061215 | 75 | 0 | 0.0 | 0.0 | 0.00 | 0.37 | 0.00 | 86 | 1007.3 |
| 20260906060718 | 76 | 0 | 0.0 | 0.0 | 0.00 | 0.37 | 0.00 | 85 | 1007.2 |
| 20260906060212 | 75 | 0 | 0.0 | 0.0 | 0.00 | 0.37 | 0.00 | 85 | 1007.2 |
| 20260906055719 | 75 | 0 | 0.0 | 0.0 | 0.00 | 0.37 | 0.00 | 86 | 1007.2 |
| 20260906055218 | 75 | 0 | 0.0 | 0.0 | 0.00 | 0.37 | 0.00 | 86 | 1007.5 |
| 20260906054717 | 76 | 0 | 0.0 | 0.0 | 0.00 | 0.37 | 0.00 | 87 | 1007.5 |
| 20260906054216 | 76 | 0 | 0.0 | 0.0 | 0.00 | 0.37 | 0.00 | 86 | 1007.5 |
| 20260906053519 | 76 | 0 | 0.0 | 0.0 | 0.00 | 0.37 | 0.00 | 86 | 1007.5 |
| 20260906053014 | 76 | 0 | 0.0 | 0.0 | 0.00 | 0.37 | 0.00 | 86 | 1007.5 |
| 20260906052511 | 76 | 0 | 0.0 | 0.0 | 0.00 | 0.37 | 0.00 | 87 | 1007.4 |
| 20260906051911 | 76 | 0 | 0.0 | 0.0 | 0.00 | 0.37 | 0.00 | 87 | 1007.4 |
| 20260906051415 | 76 | 0 | 0.0 | 0.0 | 0.00 | 0.37 | 0.00 | 87 | 1007.4 |
| 20260906050906 | 76 | 0 | 0.0 | 0.0 | 0.00 | 0.37 | 0.37 | 86 | 1007.6 |
| 20260906050432 | 77 | 0 | 0.0 | 0.0 | 0.00 | 0.37 | 0.37 | 85 | 1007.6 |
| 20260906045908 | 77 | 0 | 0.0 | 0.0 | 0.00 | 0.37 | 0.37 | 85 | 1007.6 |
| 20260906045413 | 77 | 0 | 0.0 | 0.0 | 0.00 | 0.37 | 0.37 | 85 | 1007.5 |
| 20260906044915 | 77 | 0 | 0.0 | 0.0 | 0.00 | 0.37 | 0.37 | 85 | 1007.5 |
| 20260906043540 | 76 | 0 | 0.0 | 0.0 | 0.00 | 0.37 | 0.37 | 87 | 1007.8 |
| 20260906043049 | 76 | 0 | 0.0 | 0.0 | 0.00 | 0.37 | 0.37 | 87 | 1007.8 |
| 20260906042549 | 76 | 0 | 0.0 | 0.0 | 0.00 | 0.37 | 0.37 | 87 | 1007.9 |
| 20260906042050 | 76 | 0 | 0.0 | 0.0 | 0.00 | 0.37 | 0.37 | 88 | 1007.9 |
| 20260906041542 | 76 | 0 | 0.0 | 0.0 | 0.00 | 0.37 | 0.37 | 87 | 1007.9 |
| 20260906041047 | 76 | 0 | 0.0 | 0.0 | 0.00 | 0.37 | 0.37 | 88 | 1008.0 |
| 20260906040544 | 76 | 0 | 0.0 | 0.0 | 0.00 | 0.37 | 0.37 | 87 | 1008.0 |
| 20260906040047 | 76 | 0 | 0.0 | 0.0 | 0.00 | 0.37 | 0.37 | 87 | 1008.0 |
| 20260906035549 | 77 | 0 | 0.0 | 0.0 | 0.00 | 0.37 | 0.37 | 86 | 1008.0 |
| 20260906034621 | 77 | 0 | 0.0 | 0.0 | 0.00 | 0.37 | 0.37 | 86 | 1008.0 |
| 20260906034137 | 77 | 0 | 0.0 | 0.0 | 0.00 | 0.37 | 0.37 | 85 | 1008.0 |
| 20260906033622 | 77 | 0 | 0.0 | 0.0 | 0.00 | 0.37 | 0.37 | 85 | 1008.0 |
| 20260906033137 | 77 | 0 | 0.0 | 0.0 | 0.00 | 0.37 | 0.37 | 85 | 1008.0 |
| 20260906032622 | 78 | 0 | 0.0 | 0.0 | 0.00 | 0.37 | 0.37 | 85 | 1008.0 |
| 20260906032136 | 78 | 0 | 0.0 | 0.0 | 0.00 | 0.37 | 0.37 | 85 | 1008.0 |
| 20260906031636 | 78 | 0 | 0.0 | 0.0 | 0.00 | 0.37 | 0.37 | 84 | 1008.0 |
| 20260906031138 | 78 | 0 | 0.0 | 0.0 | 0.00 | 0.37 | 0.37 | 84 | 1008.0 |
| 20260906030653 | 78 | 0 | 0.0 | 0.0 | 0.00 | 0.37 | 0.37 | 83 | 1007.9 |
| 20260906030128 | 78 | 0 | 0.0 | 0.0 | 0.00 | 0.37 | 0.37 | 83 | 1007.9 |
| 20260906025622 | 79 | 0 | 0.0 | 0.0 | 0.00 | 0.37 | 0.37 | 82 | 1007.9 |
| 20260906025121 | 79 | 0 | 0.0 | 0.0 | 0.00 | 0.37 | 0.37 | 82 | 1007.9 |
| 20260906024622 | 79 | 0 | 0.0 | 0.0 | 0.00 | 0.37 | 0.37 | 82 | 1007.9 |
| 20260906024136 | 78 | 0 | 0.0 | 0.0 | 0.00 | 0.37 | 0.37 | 82 | 1007.9 |
| 20260906023622 | 78 | 0 | 0.0 | 0.0 | 0.00 | 0.37 | 0.37 | 82 | 1007.7 |
| 20260906023412 | 78 | 0 | 0.0 | 0.0 | 0.00 | 0.37 | 0.37 | 82 | 1007.7 |
| 20260906023123 | 78 | 0 | 0.0 | 0.0 | 0.00 | 0.37 | 0.37 | 82 | 1007.7 |
| 20260906022624 | 78 | 0 | 0.0 | 0.0 | 0.00 | 0.37 | 0.37 | 82 | 1007.7 |
| 20260906021621 | 79 | 0 | 0.0 | 0.0 | 0.00 | 0.37 | 0.37 | 82 | 1007.6 |
| 20260906021141 | 79 | 0 | 0.0 | 0.0 | 0.00 | 0.37 | 0.37 | 82 | 1007.6 |
| 20260906020622 | 79 | 0 | 0.0 | 0.0 | 0.00 | 0.37 | 0.37 | 81 | 1007.6 |
| 20260906020123 | 79 | 0 | 0.0 | 0.0 | 0.00 | 0.37 | 0.37 | 81 | 1007.6 |
| 20260906015629 | 79 | 0 | 0.0 | 0.0 | 0.00 | 0.37 | 0.37 | 81 | 1007.6 |
| 20260906015122 | 79 | 0 | 0.0 | 0.0 | 0.00 | 0.37 | 0.37 | 81 | 1007.6 |
| 20260906014623 | 79 | 0 | 0.0 | 0.0 | 0.00 | 0.37 | 0.37 | 80 | 1007.6 |
| 20260906014136 | 79 | 0 | 0.0 | 0.0 | 0.00 | 0.37 | 0.37 | 80 | 1007.6 |
| 20260906013621 | 79 | 0 | 0.0 | 0.0 | 0.00 | 0.37 | 0.37 | 81 | 1007.4 |
| 20260906013210 | 79 | 0 | 0.0 | 0.0 | 0.00 | 0.37 | 0.37 | 81 | 1007.4 |
| 20260906012621 | 79 | 0 | 0.0 | 0.0 | 0.00 | 0.37 | 0.37 | 81 | 1007.4 |
| 20260906011623 | 79 | 0 | 0.0 | 0.0 | 0.00 | 0.37 | 0.37 | 81 | 1007.3 |
| 20260906011137 | 79 | 0 | 0.0 | 0.0 | 0.00 | 0.37 | 0.37 | 80 | 1007.3 |
| 20260906010630 | 79 | 0 | 0.0 | 0.0 | 0.00 | 0.37 | 0.37 | 81 | 1007.0 |
| 20260906010126 | 79 | 0 | 0.0 | 0.0 | 0.00 | 0.37 | 0.37 | 81 | 1007.0 |
| 20260906005634 | 79 | 0 | 0.0 | 0.0 | 0.00 | 0.37 | 0.37 | 83 | 1007.0 |
| 20260906005139 | 79 | 0 | 0.0 | 0.0 | 0.00 | 0.37 | 0.37 | 84 | 1006.9 |
| 20260906004633 | 79 | 0 | 0.0 | 0.0 | 0.00 | 0.37 | 0.37 | 84 | 1006.9 |
| 20260906004143 | 79 | 0 | 0.0 | 0.0 | 0.00 | 0.37 | 0.37 | 84 | 1006.9 |
| 20260906003623 | 79 | 0 | 0.0 | 0.0 | 0.00 | 0.37 | 0.37 | 84 | 1006.9 |
| 20260906003124 | 79 | 0 | 0.0 | 0.0 | 0.00 | 0.37 | 0.37 | 83 | 1006.9 |
| 20260906002622 | 79 | 0 | 0.0 | 0.0 | 0.00 | 0.37 | 0.37 | 83 | 1006.9 |
| 20260906002121 | 79 | 0 | 0.0 | 0.0 | 0.00 | 0.37 | 0.37 | 83 | 1006.8 |
| 20260906001622 | 79 | 0 | 0.0 | 0.0 | 0.00 | 0.37 | 0.37 | 83 | 1006.8 |
| 20260906001125 | 79 | 0 | 0.0 | 0.0 | 0.00 | 0.37 | 0.37 | 83 | 1006.8 |
| 20260906000622 | 79 | 0 | 0.0 | 0.0 | 0.00 | 0.37 | 0.37 | 85 | 1006.7 |
| 20260906000123 | 79 | 0 | 0.0 | 0.0 | 0.00 | 0.37 | 0.37 | 86 | 1006.7 |
| 20260905235621 | 78 | 0 | 0.0 | 0.0 | 0.00 | 0.37 | 0.37 | 86 | 1006.7 |
| 20260905235122 | 78 | 0 | 0.0 | 0.0 | 0.00 | 0.37 | 0.37 | 87 | 1006.5 |
| 20260905234621 | 78 | 0 | 0.0 | 0.0 | 0.00 | 0.37 | 0.37 | 87 | 1006.5 |
| 20260905234133 | 78 | 0 | 0.0 | 0.0 | 0.00 | 0.37 | 0.37 | 87 | 1006.5 |
| 20260905233622 | 78 | 0 | 0.0 | 0.0 | 0.00 | 0.37 | 0.37 | 87 | 1006.5 |
| 20260905232651 | 78 | 0 | 0.0 | 0.0 | 0.00 | 0.37 | 0.37 | 88 | 1006.5 |
| 20260905232152 | 78 | 0 | 0.0 | 0.0 | 0.00 | 0.37 | 0.37 | 88 | 1006.6 |
| 20260905231652 | 78 | 0 | 0.0 | 0.0 | 0.00 | 0.37 | 0.37 | 89 | 1006.6 |
| 20260905231155 | 78 | 0 | 0.0 | 0.0 | 0.00 | 0.37 | 0.37 | 88 | 1006.6 |
| 20260905230654 | 78 | 0 | 0.0 | 0.0 | 0.00 | 0.37 | 0.37 | 88 | 1006.5 |
| 20260905230158 | 78 | 0 | 0.0 | 0.0 | 0.00 | 0.37 | 0.37 | 88 | 1006.5 |
| 20260905225650 | 78 | 0 | 0.0 | 0.0 | 0.00 | 0.37 | 0.37 | 88 | 1006.5 |
| 20260905225149 | 78 | 0 | 0.0 | 0.0 | 0.00 | 0.37 | 0.37 | 87 | 1006.4 |
| 20260905224649 | 78 | 0 | 0.0 | 0.0 | 0.00 | 0.37 | 0.37 | 87 | 1006.4 |
| 20260905224155 | 78 | 0 | 0.0 | 0.0 | 0.00 | 0.37 | 0.37 | 87 | 1006.4 |
| 20260905223653 | 78 | 0 | 0.0 | 0.0 | 0.00 | 0.37 | 0.37 | 86 | 1006.3 |
| 20260905223223 | 78 | 0 | 0.0 | 0.0 | 0.00 | 0.37 | 0.37 | 86 | 1006.3 |
| 20260905222710 | 78 | 0 | 0.0 | 0.0 | 0.00 | 0.37 | 0.37 | 87 | 1006.3 |
| 20260905222155 | 78 | 0 | 0.0 | 0.0 | 0.00 | 0.37 | 0.37 | 87 | 1006.3 |
| 20260905221649 | 77 | 0 | 0.0 | 0.0 | 0.00 | 0.37 | 0.37 | 86 | 1006.3 |
| 20260905221154 | 77 | 0 | 0.0 | 0.0 | 0.00 | 0.37 | 0.37 | 86 | 1006.3 |
| 20260905220653 | 77 | 0 | 0.0 | 0.0 | 0.00 | 0.37 | 0.37 | 86 | 1006.5 |
| 20260905220220 | 77 | 0 | 0.0 | 0.0 | 0.00 | 0.37 | 0.37 | 86 | 1006.5 |
| 20260905215649 | 77 | 0 | 0.0 | 0.0 | 0.00 | 0.37 | 0.37 | 87 | 1006.5 |
| 20260905215202 | 77 | 0 | 0.0 | 0.0 | 0.00 | 0.37 | 0.37 | 87 | 1006.7 |
| 20260905214649 | 77 | 0 | 0.0 | 0.0 | 0.00 | 0.37 | 0.37 | 87 | 1006.7 |
| 20260905214205 | 77 | 0 | 0.0 | 0.0 | 0.00 | 0.37 | 0.37 | 87 | 1006.7 |
| 20260905213336 | 76 | 0 | 0.0 | 0.0 | 0.00 | 0.37 | 0.37 | 85 | 1006.8 |
| 20260905212837 | 76 | 0 | 0.0 | 0.0 | 0.00 | 0.37 | 0.37 | 85 | 1006.8 |
| 20260905212336 | 76 | 0 | 0.0 | 0.0 | 0.00 | 0.37 | 0.37 | 84 | 1006.8 |
| 20260905211837 | 76 | 0 | 0.0 | 0.0 | 0.00 | 0.37 | 0.37 | 82 | 1006.8 |
| 20260905211336 | 75 | 0 | 0.0 | 0.0 | 0.00 | 0.37 | 0.37 | 81 | 1006.8 |
| 20260905210836 | 75 | 0 | 0.0 | 0.0 | 0.00 | 0.37 | 0.37 | 82 | 1006.9 |
| 20260905210336 | 74 | 0 | 0.0 | 0.0 | 0.00 | 0.37 | 0.37 | 86 | 1006.9 |
| 20260905205836 | 74 | 0 | 0.0 | 0.0 | 0.00 | 0.37 | 0.37 | 86 | 1006.9 |
| 20260905205337 | 74 | 0 | 0.0 | 0.0 | 0.00 | 0.37 | 0.37 | 86 | 1006.8 |
| 20260905204847 | 73 | 0 | 0.0 | 0.0 | 0.00 | 0.37 | 0.37 | 84 | 1006.8 |
| 20260905204337 | 73 | 0 | 0.0 | 0.0 | 0.00 | 0.37 | 0.37 | 82 | 1006.8 |
| 20260905203839 | 73 | 0 | 0.0 | 0.0 | 0.00 | 0.37 | 0.37 | 84 | 1006.6 |
| 20260905203219 | 72 | 0 | 0.0 | 0.0 | 0.00 | 0.37 | 0.37 | 86 | 1006.6 |
| 20260905202657 | 72 | 0 | 0.0 | 0.0 | 0.00 | 0.37 | 0.37 | 90 | 1006.6 |
| 20260905202158 | 72 | 0 | 0.0 | 0.0 | 0.00 | 0.37 | 0.37 | 89 | 1006.9 |
| 20260905201658 | 72 | 0 | 0.0 | 0.0 | 0.00 | 0.37 | 0.37 | 88 | 1006.9 |
| 20260905201156 | 72 | 0 | 0.0 | 0.0 | 0.00 | 0.37 | 0.37 | 91 | 1006.9 |
| 20260905200656 | 72 | 0 | 0.0 | 0.0 | 0.00 | 0.37 | 0.37 | 92 | 1007.3 |
| 20260905200211 | 71 | 0 | 0.0 | 0.0 | 0.00 | 0.37 | 0.37 | 93 | 1007.3 |
| 20260905195656 | 71 | 0 | 0.0 | 0.0 | 0.00 | 0.37 | 0.37 | 92 | 1007.3 |
| 20260905195155 | 71 | 0 | 0.0 | 0.0 | 0.00 | 0.37 | 0.37 | 94 | 1007.5 |
| 20260905194703 | 71 | 0 | 0.0 | 0.0 | 0.00 | 0.37 | 0.37 | 94 | 1007.5 |
| 20260905194206 | 71 | 0 | 0.0 | 0.0 | 0.00 | 0.37 | 0.37 | 94 | 1007.5 |
| 20260905193659 | 71 | 0 | 0.0 | 0.0 | 0.00 | 0.37 | 0.37 | 94 | 1007.2 |